View from above orbital plane
|
View from above satellite
|
Ground track
|
The orbit data is extracted from the following two-line orbital elements,
1 15595U 85021A 21015.48381738 -.00000057 00000-0 25929-4 0 9996
2 15595 108.0356 289.1771 0002732 273.6500 86.4329 14.38183415878207
Epoch (UTC): | 15 January 2021 11:36:41 |
Eccentricity: | 0.0002732 |
inclination: | 108.0356° |
perigee height: | 762 km |
apogee height: | 766 km |
right ascension of ascending node: | 289.1771° |
argument of perigee: | 273.6500° |
revolutions per day: | 14.38183415 |
mean anomaly at epoch: | 86.4329° |
orbit number at epoch: | 87820 |
The dashed part of the orbit path shows where the satellite is in the earth's shadow,
|
|